Time,TemperatureF,DewpointF,PressureIn,WindDirection,WindDirectionDegrees,WindSpeedMPH,WindSpeedGustMPH,Humidity,HourlyPrecipIn,Conditions,Clouds,dailyrainin,SolarRadiationWatts/m^2,SoftwareType,DateUTC
2013-06-14 00:02:00,68.0,61.0,-100.00,North,358,4.0,9.0,78,0.00,,,0.03,0.000000,,2013-06-14 05:02:00,
2013-06-14 00:34:00,67.0,62.0,-100.00,North,10,3.0,6.0,83,0.00,,,0.03,0.000000,,2013-06-14 05:34:00,
2013-06-14 00:43:00,67.0,62.0,-100.00,North,10,3.0,6.0,83,0.00,,,0.03,0.000000,,2013-06-14 05:43:00,
2013-06-14 00:52:00,67.0,62.0,-100.00,North,10,3.0,6.0,83,0.00,,,0.03,0.000000,,2013-06-14 05:52:00,
2013-06-14 01:02:00,67.0,62.0,-100.00,North,10,3.0,6.0,83,0.00,,,0.03,0.000000,,2013-06-14 06:02:00,
2013-06-14 01:33:00,65.0,58.0,-100.00,North,3,4.0,9.0,78,0.00,,,0.03,0.000000,,2013-06-14 06:33:00,
2013-06-14 01:43:00,65.0,58.0,-100.00,North,3,4.0,9.0,78,0.00,,,0.03,0.000000,,2013-06-14 06:43:00,
2013-06-14 01:52:00,65.0,58.0,-100.00,North,3,4.0,9.0,78,0.00,,,0.03,0.000000,,2013-06-14 06:52:00,
2013-06-14 02:02:00,65.0,58.0,-100.00,North,3,4.0,9.0,78,0.00,,,0.03,0.000000,,2013-06-14 07:02:00,
2013-06-14 02:33:00,64.0,56.0,-100.00,North,1,2.0,7.0,75,0.00,,,0.03,0.000000,,2013-06-14 07:33:00,
2013-06-14 02:43:00,64.0,56.0,-100.00,North,1,2.0,7.0,75,0.00,,,0.03,0.000000,,2013-06-14 07:43:00,
2013-06-14 02:53:00,64.0,56.0,-100.00,North,1,2.0,7.0,75,0.00,,,0.03,0.000000,,2013-06-14 07:53:00,
2013-06-14 03:02:00,64.0,56.0,-100.00,North,1,2.0,7.0,75,0.00,,,0.03,0.000000,,2013-06-14 08:02:00,
2013-06-14 03:33:00,61.0,56.0,-100.00,WNW,301,1.0,4.0,85,0.00,,,0.03,0.000000,,2013-06-14 08:33:00,
2013-06-14 03:43:00,61.0,56.0,-100.00,WNW,301,1.0,4.0,85,0.00,,,0.03,0.000000,,2013-06-14 08:43:00,
2013-06-14 03:53:00,61.0,56.0,-100.00,WNW,301,1.0,4.0,85,0.00,,,0.03,0.000000,,2013-06-14 08:53:00,
2013-06-14 04:02:00,61.0,56.0,-100.00,WNW,301,1.0,4.0,85,0.00,,,0.03,0.000000,,2013-06-14 09:02:00,
2013-06-14 04:33:00,59.0,56.0,-100.00,WNW,297,1.0,4.0,91,0.00,,,0.03,0.000000,,2013-06-14 09:33:00,
2013-06-14 04:43:00,59.0,56.0,-100.00,WNW,297,1.0,4.0,91,0.00,,,0.03,0.000000,,2013-06-14 09:43:00,
2013-06-14 04:53:00,59.0,56.0,-100.00,WNW,297,1.0,4.0,91,0.00,,,0.03,0.000000,,2013-06-14 09:53:00,
2013-06-14 05:01:00,59.0,56.0,-100.00,WNW,297,1.0,4.0,91,0.00,,,0.03,0.000000,,2013-06-14 10:01:00,
2013-06-14 05:34:00,59.0,55.0,-100.00,NNE,16,3.0,4.0,87,0.00,,,0.03,0.000000,,2013-06-14 10:34:00,
2013-06-14 05:44:00,59.0,55.0,-100.00,NNE,16,3.0,4.0,87,0.00,,,0.03,0.000000,,2013-06-14 10:44:00,
2013-06-14 05:53:00,59.0,55.0,-100.00,NNE,16,3.0,4.0,87,0.00,,,0.03,0.000000,,2013-06-14 10:53:00,
2013-06-14 06:02:00,59.0,55.0,-100.00,NNE,16,3.0,4.0,87,0.00,,,0.03,0.000000,,2013-06-14 11:02:00,
2013-06-14 06:43:00,57.0,55.0,-100.00,WSW,239,1.0,3.0,94,0.00,,,0.03,7.000000,,2013-06-14 11:43:00,
2013-06-14 06:52:00,57.0,55.0,-100.00,WSW,239,1.0,3.0,94,0.00,,,0.03,7.000000,,2013-06-14 11:52:00,
2013-06-14 07:02:00,57.0,55.0,-100.00,WSW,239,1.0,3.0,94,0.00,,,0.03,7.000000,,2013-06-14 12:02:00,
2013-06-14 07:43:00,61.0,58.0,-100.00,North,354,4.0,5.0,90,0.00,,,0.03,27.000000,,2013-06-14 12:43:00,
2013-06-14 07:52:00,61.0,58.0,-100.00,North,354,4.0,5.0,90,0.00,,,0.03,27.000000,,2013-06-14 12:52:00,
2013-06-14 08:02:00,61.0,58.0,-100.00,North,354,4.0,5.0,90,0.00,,,0.03,27.000000,,2013-06-14 13:02:00,
2013-06-14 08:43:00,66.0,59.0,-100.00,North,7,5.0,7.0,79,0.00,,,0.03,133.000000,,2013-06-14 13:43:00,
2013-06-14 08:53:00,66.0,59.0,-100.00,North,7,5.0,7.0,79,0.00,,,0.03,133.000000,,2013-06-14 13:53:00,
2013-06-14 09:02:00,66.0,59.0,-100.00,North,7,5.0,7.0,79,0.00,,,0.03,133.000000,,2013-06-14 14:02:00,
2013-06-14 09:34:00,70.0,58.0,-100.00,NNE,16,5.0,8.0,65,0.00,,,0.03,494.000000,,2013-06-14 14:34:00,
2013-06-14 09:43:00,70.0,58.0,-100.00,NNE,16,5.0,8.0,65,0.00,,,0.03,494.000000,,2013-06-14 14:43:00,
2013-06-14 09:52:00,70.0,58.0,-100.00,NNE,16,5.0,8.0,65,0.00,,,0.03,494.000000,,2013-06-14 14:52:00,
2013-06-14 10:02:00,70.0,58.0,-100.00,NNE,16,5.0,8.0,65,0.00,,,0.03,494.000000,,2013-06-14 15:02:00,
2013-06-14 10:33:00,74.0,60.0,-100.00,ENE,59,2.0,7.0,61,0.00,,,0.03,648.000000,,2013-06-14 15:33:00,
2013-06-14 10:44:00,74.0,60.0,-100.00,ENE,59,2.0,7.0,61,0.00,,,0.03,648.000000,,2013-06-14 15:44:00,
2013-06-14 10:53:00,74.0,60.0,-100.00,ENE,59,2.0,7.0,61,0.00,,,0.03,648.000000,,2013-06-14 15:53:00,
2013-06-14 11:01:00,74.0,60.0,-100.00,ENE,59,2.0,7.0,61,0.00,,,0.03,648.000000,,2013-06-14 16:01:00,
2013-06-14 11:33:00,76.0,60.0,-100.00,North,350,5.0,10.0,57,0.00,,,0.03,795.000000,,2013-06-14 16:33:00,
2013-06-14 11:43:00,76.0,60.0,-100.00,North,350,5.0,10.0,57,0.00,,,0.03,795.000000,,2013-06-14 16:43:00,
2013-06-14 11:53:00,76.0,60.0,-100.00,North,350,5.0,10.0,57,0.00,,,0.03,795.000000,,2013-06-14 16:53:00,
2013-06-14 12:02:00,76.0,60.0,-100.00,North,350,5.0,10.0,57,0.00,,,0.03,795.000000,,2013-06-14 17:02:00,
2013-06-14 12:34:00,77.0,59.0,-100.00,NNW,335,6.0,10.0,54,0.00,,,0.03,870.000000,,2013-06-14 17:34:00,
2013-06-14 12:43:00,77.0,59.0,-100.00,NNW,335,6.0,10.0,54,0.00,,,0.03,870.000000,,2013-06-14 17:43:00,
2013-06-14 12:53:00,77.0,59.0,-100.00,NNW,335,6.0,10.0,54,0.00,,,0.03,870.000000,,2013-06-14 17:53:00,
2013-06-14 13:02:00,77.0,59.0,-100.00,NNW,335,6.0,10.0,54,0.00,,,0.03,870.000000,,2013-06-14 18:02:00,
2013-06-14 13:33:00,80.0,61.0,-100.00,North,10,3.0,10.0,52,0.00,,,0.00,915.000000,,2013-06-14 18:33:00,
2013-06-14 13:43:00,80.0,61.0,-100.00,North,10,3.0,10.0,52,0.00,,,0.00,915.000000,,2013-06-14 18:43:00,
2013-06-14 13:52:00,80.0,61.0,-100.00,North,10,3.0,10.0,52,0.00,,,0.00,915.000000,,2013-06-14 18:52:00,
2013-06-14 14:01:00,80.0,61.0,-100.00,North,10,3.0,10.0,52,0.00,,,0.00,915.000000,,2013-06-14 19:01:00,
2013-06-14 14:33:00,81.0,59.0,-100.00,NNW,328,4.0,9.0,47,0.00,,,0.00,900.000000,,2013-06-14 19:33:00,
2013-06-14 14:43:00,81.0,59.0,-100.00,NNW,328,4.0,9.0,47,0.00,,,0.00,900.000000,,2013-06-14 19:43:00,
2013-06-14 14:53:00,81.0,59.0,-100.00,NNW,328,4.0,9.0,47,0.00,,,0.00,900.000000,,2013-06-14 19:53:00,
2013-06-14 15:02:00,81.0,59.0,-100.00,NNW,328,4.0,9.0,47,0.00,,,0.00,900.000000,,2013-06-14 20:02:00,
2013-06-14 15:43:00,82.0,58.0,-100.00,North,5,3.0,10.0,44,0.00,,,-99.99,828.000000,,2013-06-14 20:43:00,
2013-06-14 15:53:00,82.0,58.0,-100.00,North,5,3.0,10.0,44,0.00,,,-99.99,828.000000,,2013-06-14 20:53:00,
2013-06-14 16:02:00,82.0,58.0,-100.00,North,5,3.0,10.0,44,0.00,,,-99.99,828.000000,,2013-06-14 21:02:00,
2013-06-14 16:34:00,82.0,59.0,-100.00,North,351,4.0,10.0,46,0.00,,,0.00,711.000000,,2013-06-14 21:34:00,
2013-06-14 16:43:00,82.0,59.0,-100.00,North,351,4.0,10.0,46,0.00,,,0.00,711.000000,,2013-06-14 21:43:00,
2013-06-14 16:52:00,82.0,59.0,-100.00,North,351,4.0,10.0,46,0.00,,,0.00,711.000000,,2013-06-14 21:52:00,
2013-06-14 17:02:00,82.0,59.0,-100.00,North,351,4.0,10.0,46,0.00,,,0.00,711.000000,,2013-06-14 22:02:00,
2013-06-14 17:33:00,82.0,59.0,-100.00,North,11,4.0,10.0,46,0.00,,,0.00,550.000000,,2013-06-14 22:33:00,
2013-06-14 17:43:00,82.0,59.0,-100.00,North,11,4.0,10.0,46,0.00,,,0.00,550.000000,,2013-06-14 22:43:00,
2013-06-14 17:53:00,82.0,59.0,-100.00,North,11,4.0,10.0,46,0.00,,,0.00,550.000000,,2013-06-14 22:53:00,
2013-06-14 18:02:00,82.0,59.0,-100.00,North,11,4.0,10.0,46,0.00,,,0.00,550.000000,,2013-06-14 23:02:00,
2013-06-14 18:43:00,80.0,59.0,-100.00,North,6,5.0,10.0,48,0.00,,,0.00,343.000000,,2013-06-14 23:43:00,
2013-06-14 18:52:00,80.0,59.0,-100.00,North,6,5.0,10.0,48,0.00,,,0.00,343.000000,,2013-06-14 23:52:00,
2013-06-14 19:01:00,80.0,59.0,-100.00,North,6,5.0,10.0,48,0.00,,,0.00,343.000000,,2013-06-15 00:01:00,
2013-06-14 19:34:00,77.0,58.0,-100.00,North,3,4.0,7.0,52,0.00,,,0.00,191.000000,,2013-06-15 00:34:00,
2013-06-14 19:43:00,77.0,58.0,-100.00,North,3,4.0,7.0,52,0.00,,,0.00,191.000000,,2013-06-15 00:43:00,
2013-06-14 19:53:00,77.0,58.0,-100.00,North,3,4.0,7.0,52,0.00,,,0.00,191.000000,,2013-06-15 00:53:00,
2013-06-14 20:01:00,77.0,58.0,-100.00,North,3,4.0,7.0,52,0.00,,,0.00,191.000000,,2013-06-15 01:01:00,
2013-06-14 20:33:00,71.0,60.0,-100.00,SSE,155,1.0,4.0,68,0.00,,,0.00,16.000000,,2013-06-15 01:33:00,
2013-06-14 20:43:00,71.0,60.0,-100.00,SSE,155,1.0,4.0,68,0.00,,,0.00,16.000000,,2013-06-15 01:43:00,
2013-06-14 20:54:00,71.0,60.0,-100.00,SSE,155,1.0,4.0,68,0.00,,,0.00,16.000000,,2013-06-15 01:54:00,
2013-06-14 21:02:00,71.0,60.0,-100.00,SSE,155,1.0,4.0,68,0.00,,,0.00,16.000000,,2013-06-15 02:02:00,
2013-06-14 21:43:00,68.0,60.0,-100.00,SE,138,0.0,2.0,76,0.00,,,0.00,0.000000,,2013-06-15 02:43:00,
2013-06-14 21:53:00,68.0,60.0,-100.00,SE,138,0.0,2.0,76,0.00,,,0.00,0.000000,,2013-06-15 02:53:00,
2013-06-14 22:01:00,68.0,60.0,-100.00,SE,138,0.0,2.0,76,0.00,,,0.00,0.000000,,2013-06-15 03:01:00,
2013-06-14 22:44:00,66.0,63.0,-100.00,SE,126,0.0,0.0,90,0.00,,,0.00,0.000000,,2013-06-15 03:44:00,
2013-06-14 22:53:00,66.0,63.0,-100.00,SE,126,0.0,0.0,90,0.00,,,0.00,0.000000,,2013-06-15 03:53:00,
2013-06-14 23:02:00,66.0,63.0,-100.00,SE,126,0.0,0.0,90,0.00,,,0.00,0.000000,,2013-06-15 04:02:00,
2013-06-14 23:34:00,65.0,62.0,-100.00,SE,132,0.0,0.0,91,0.00,,,0.00,0.000000,,2013-06-15 04:34:00,
2013-06-14 23:43:00,65.0,62.0,-100.00,SE,132,0.0,0.0,91,0.00,,,0.00,0.000000,,2013-06-15 04:43:00,
2013-06-14 23:54:00,65.0,62.0,-100.00,SE,132,0.0,0.0,91,0.00,,,0.00,0.000000,,2013-06-15 04:54:00,